• Join FlightAware (Why Join?)
  • Login
  • US Flag 
07:58AM EDT


 

Airport Tracker/Info


-or-


 

Live Flight TrackerFlight Track Log ✈ SWA3561 ✈ 04-May-2013 ✈ KAMA - KDAL

Flight Track Log - Related Links

Times and Time Zones

All times are in EDT time to prevent confusion due to time zone crossing. See the SWA3561 flight status page for this flight to view local times or setup timezone preferences in your user account.

Time Position Orientation Groundspeed Altitude Reporting Facility
EDT Latitude Longitude Course Direction KTS MPH feet Rate Location/Type
07:54AM 35.1572 -101.5822 112° Southeast 255 293 8,100  Level Albuquerque Center
07:55AM 35.1508 -101.4967 95° East 253 291 10,700 2,700 Climbing Albuquerque Center
07:56AM 35.1128 -101.3914 114° Southeast 331 381 13,600 3,000 Climbing Albuquerque Center
07:57AM 35.0689 -101.2822 116° Southeast 354 407 16,800 2,940 Climbing Albuquerque Center
07:58AM 35.0233 -101.1667 116° Southeast 371 427 19,500 2,580 Climbing Albuquerque Center
07:59AM 35.0809 -101.0095 112° Southeast  Level FlightAware Approximate
07:59AM 34.9742 -101.0458 116° Southeast 390 449 22,100  Level Albuquerque Center
08:00AM 34.9233 -100.9181 116° Southeast 411 473 24,500 2,340 Climbing Albuquerque Center
08:01AM 34.8692 -100.7878 117° Southeast 427 491 26,900 2,100 Climbing Albuquerque Center
08:02AM 34.8103 -100.6558 118° Southeast 439 505 28,800 1,800 Climbing Albuquerque Center
08:03AM 34.7506 -100.5175 118° Southeast 456 525 30,600 1,620 Climbing Albuquerque Center
08:04AM 34.6897 -100.3761 118° Southeast 467 537 32,100 1,500 Climbing Albuquerque Center
08:05AM 34.6269 -100.2303 118° Southeast 482 555 33,600 1,620 Climbing Albuquerque Center
08:06AM 34.5761 -100.1147 118° Southeast 484 557 35,000 780 Climbing Fort Worth Center
08:07AM 34.5125 -99.9664 117° Southeast 489 563 35,000  Level Fort Worth Center
08:08AM 34.4464 -99.8183 118° Southeast 494 568 35,000  Level Fort Worth Center
08:09AM 34.3864 -99.6833 118° Southeast 500 575 35,000  Level Fort Worth Center
08:10AM 34.3181 -99.5358 119° Southeast 500 575 35,000  Level Fort Worth Center
08:11AM 34.2558 -99.3911 117° Southeast 500 575 35,000  Level Fort Worth Center
08:12AM 34.1869 -99.2414 119° Southeast 500 575 35,000  Level Fort Worth Center
08:13AM 34.1222 -99.0969 118° Southeast 503 579 35,000  Level Fort Worth Center
08:14AM 34.0514 -98.9400 119° Southeast 509 586 35,000  Level Fort Worth Center
08:15AM 33.9781 -98.7811 119° Southeast 498 573 35,000 -1,080 Level Fort Worth Center
08:16AM 33.9067 -98.6297 120° Southeast 498 573 32,900 -1,560 Descending Fort Worth Center
08:17AM 33.8453 -98.4939 119° Southeast 508 585 31,900 -2,100 Descending Fort Worth Center
08:18AM 33.7733 -98.3381 119° Southeast 513 590 28,800 -3,840 Descending Fort Worth Center
08:19AM 33.6869 -98.1772 123° Southeast 525 604 24,300 -3,780 Descending Fort Worth Center
08:20AM 33.6083 -98.0369 124° Southeast 520 598 21,300 -2,700 Descending Fort Worth Center
08:21AM 33.5294 -97.9019 125° Southeast 504 580 19,000 -1,500 Descending Fort Worth Center
08:22AM 33.4694 -97.7969 124° Southeast 453 521 18,300 -2,280 Descending Fort Worth Center
08:23AM 33.3967 -97.6672 124° Southeast 438 504 14,500 -3,600 Descending Fort Worth Center
08:24AM 33.3175 -97.5625 132° Southeast 426 490 11,100 -1,800 Descending Fort Worth Center
08:25AM 33.2486 -97.4856 137° Southeast 395 455 11,000 -60 Descending Fort Worth Center
08:26AM 33.1717 -97.3961 136° Southeast 362 417 11,000  Level Fort Worth Center
08:27AM 33.1089 -97.3217 135° Southeast 356 410 11,000  Level Fort Worth Center
08:28AM 33.0336 -97.2350 136° Southeast 346 398 11,000 -60 Level Fort Worth Center
08:29AM 32.9731 -97.1683 137° Southeast 340 391 10,900 -420 Descending Fort Worth Center
08:30AM 32.9333 -97.1167 132° Southeast 291 335 10,400 -1,200 Descending Dallas / Fort Worth TRACON
08:31AM 32.8667 -97.0500 140° Southeast 268 308 8,900 -1,500 Descending Dallas / Fort Worth TRACON
08:32AM 32.8333 -96.9833 121° Southeast 255 293 7,500 -1,620 Descending Dallas / Fort Worth TRACON
08:33AM 32.8000 -96.9167 121° Southeast 249 287 5,900 -1,500 Descending Dallas / Fort Worth TRACON
08:34AM 32.7500 -96.8500 132° Southeast 247 284 4,600 -1,200 Descending Dallas / Fort Worth TRACON
08:35AM 32.7167 -96.7833 121° Southeast 234 269 3,600 -1,020 Descending Dallas / Fort Worth TRACON
08:36AM 32.7667 -96.7500 29° Northeast 187 215 2,600 -900 Descending Dallas / Fort Worth TRACON
08:37AM 32.8000 -96.7833 320° Northwest 131 151 1,800 -780 Descending Dallas / Fort Worth TRACON
08:38AM 32.8167 -96.8167 301° West 128 147 1,100 -720 Descending Dallas / Fort Worth TRACON